^^

Weather Underground History

Daily Summary for July 21, 2019 Units:  Metric    English   Both
Daily Weekly Monthly Yearly Custom
  Current: High: Low: Average:
Temperature: 19 °C 19 °C 12 °C 13.8 °C
Dew Point: 15 °C 15 °C 10 °C 11.9 °C
Humidity: 75% 93% 75% 88%
Wind Speed: 7km/h 10km/h 0km/h 1.9km/h
Wind Gust: 10km/h 18km/h - -
WindSSW - - SW
Pressure: 1018.4 hPa 1018.4 hPa 1013.4 hPa -
Precipitation: 0.0 mm      
Historical Graphs
 
 
Tabular Data for July 21, 2019
Time Temperature Dew Point Pressure Wind Wind Speed Wind Gust Humidity Rainfall Rate (Hourly) solar
00:04 12 °C 10 °C 1013.4 hPa Calm     83% 0.0 mm 0 W/m2
00:09 12 °C 10 °C 1013.5 hPa Calm     84% 0.0 mm 0 W/m2
00:14 12 °C 10 °C 1013.5 hPa Calm     85% 0.0 mm 0 W/m2
00:19 12 °C 10 °C 1013.6 hPa Calm     85% 0.0 mm 0 W/m2
00:24 12 °C 10 °C 1013.6 hPa Calm     85% 0.0 mm 0 W/m2
00:29 12 °C 10 °C 1013.6 hPa Calm     86% 0.0 mm 0 W/m2
00:34 12 °C 10 °C 1013.6 hPa Calm     86% 0.0 mm 0 W/m2
00:39 12 °C 10 °C 1013.6 hPa Calm     86% 0.0 mm 0 W/m2
00:44 12 °C 10 °C 1013.7 hPa Calm   3 km/h 86% 0.0 mm 0 W/m2
00:49 12 °C 10 °C 1013.8 hPa West 1 km/h 6 km/h 87% 0.0 mm 0 W/m2
00:54 12 °C 10 °C 1013.9 hPa Calm   6 km/h 87% 0.0 mm 0 W/m2
00:59 12 °C 10 °C 1013.8 hPa West 1 km/h 6 km/h 86% 0.0 mm 0 W/m2
01:04 12 °C 10 °C 1013.9 hPa West 3 km/h 6 km/h 86% 0.0 mm 0 W/m2
01:09 12 °C 10 °C 1013.9 hPa Calm   6 km/h 87% 0.0 mm 0 W/m2
01:14 12 °C 10 °C 1013.9 hPa Calm   3 km/h 87% 0.0 mm 0 W/m2
01:19 12 °C 10 °C 1014.0 hPa Calm   5 km/h 87% 0.0 mm 0 W/m2
01:24 12 °C 10 °C 1014.0 hPa West 1 km/h 5 km/h 87% 0.0 mm 0 W/m2
01:29 12 °C 10 °C 1014.1 hPa Calm     88% 0.0 mm 0 W/m2
01:34 12 °C 10 °C 1014.1 hPa Calm     88% 0.0 mm 0 W/m2
01:39 12 °C 10 °C 1014.1 hPa Calm     88% 0.0 mm 0 W/m2
01:44 12 °C 10 °C 1014.1 hPa Calm     88% 0.0 mm 0 W/m2
01:49 12 °C 10 °C 1014.2 hPa Calm     88% 0.0 mm 0 W/m2
01:54 12 °C 10 °C 1014.2 hPa Calm     88% 0.0 mm 0 W/m2
01:59 12 °C 10 °C 1014.2 hPa Calm     88% 0.0 mm 0 W/m2
02:04 12 °C 10 °C 1014.3 hPa Calm     88% 0.0 mm 0 W/m2
02:09 12 °C 10 °C 1014.4 hPa Calm     89% 0.0 mm 0 W/m2
02:14 12 °C 10 °C 1014.5 hPa Calm     89% 0.0 mm 0 W/m2
02:19 12 °C 10 °C 1014.6 hPa Calm     90% 0.0 mm 0 W/m2
02:24 12 °C 11 °C 1014.6 hPa Calm     91% 0.0 mm 0 W/m2
02:29 12 °C 11 °C 1014.6 hPa Calm     90% 0.0 mm 0 W/m2
02:34 12 °C 11 °C 1014.6 hPa Calm     90% 0.0 mm 0 W/m2
02:39 12 °C 11 °C 1014.6 hPa Calm     90% 0.0 mm 0 W/m2
02:44 12 °C 11 °C 1014.6 hPa Calm     90% 0.0 mm 0 W/m2
02:49 12 °C 11 °C 1014.6 hPa Calm     90% 0.0 mm 0 W/m2
02:54 12 °C 11 °C 1014.6 hPa Calm     90% 0.0 mm 0 W/m2
02:59 12 °C 11 °C 1014.6 hPa WSW 2 km/h 8 km/h 91% 0.0 mm 0 W/m2
03:04 13 °C 11 °C 1014.6 hPa Calm   3 km/h 91% 0.0 mm 0 W/m2
03:09 13 °C 11 °C 1014.6 hPa Calm     91% 0.0 mm 0 W/m2
03:14 13 °C 11 °C 1014.7 hPa Calm   2 km/h 91% 0.0 mm 0 W/m2
03:19 13 °C 11 °C 1014.7 hPa Calm     91% 0.0 mm 0 W/m2
03:24 13 °C 11 °C 1014.7 hPa Calm     91% 0.0 mm 0 W/m2
03:29 13 °C 11 °C 1014.7 hPa Calm     91% 0.0 mm 0 W/m2
03:34 13 °C 11 °C 1014.7 hPa Calm     91% 0.0 mm 0 W/m2
03:39 13 °C 11 °C 1014.7 hPa Calm     91% 0.0 mm 0 W/m2
03:44 13 °C 11 °C 1014.7 hPa Calm     91% 0.0 mm 0 W/m2
03:49 13 °C 11 °C 1014.8 hPa Calm     91% 0.0 mm 0 W/m2
03:54 13 °C 12 °C 1014.9 hPa Calm     91% 0.0 mm 0 W/m2
03:59 13 °C 12 °C 1015.0 hPa Calm     91% 0.0 mm 0 W/m2
04:04 13 °C 12 °C 1015.0 hPa Calm     91% 0.0 mm 0 W/m2
04:09 13 °C 12 °C 1014.9 hPa Calm   3 km/h 91% 0.0 mm 0 W/m2
04:14 13 °C 12 °C 1015.0 hPa Calm     91% 0.0 mm 0 W/m2
04:19 13 °C 12 °C 1015.0 hPa Calm     91% 0.0 mm 0 W/m2
04:24 13 °C 12 °C 1015.0 hPa Calm     91% 0.0 mm 0 W/m2
04:29 13 °C 12 °C 1015.0 hPa Calm     91% 0.0 mm 0 W/m2
04:34 13 °C 12 °C 1015.2 hPa Calm     91% 0.0 mm 0 W/m2
04:39 13 °C 12 °C 1015.1 hPa Calm     90% 0.0 mm 0 W/m2
04:44 13 °C 11 °C 1015.3 hPa Calm     90% 0.0 mm 0 W/m2
04:49 13 °C 11 °C 1015.3 hPa Calm     90% 0.0 mm 0 W/m2
04:54 13 °C 11 °C 1015.4 hPa Calm     90% 0.0 mm 0 W/m2
04:59 13 °C 11 °C 1015.5 hPa Calm     90% 0.0 mm 0 W/m2
05:04 13 °C 11 °C 1015.6 hPa Calm     91% 0.0 mm 0 W/m2
05:09 12 °C 11 °C 1015.6 hPa Calm     90% 0.0 mm 5 W/m2
05:14 12 °C 11 °C 1015.6 hPa Calm     91% 0.0 mm 5 W/m2
05:19 12 °C 11 °C 1015.7 hPa Calm     91% 0.0 mm 7 W/m2
05:24 12 °C 11 °C 1015.8 hPa Calm     91% 0.0 mm 9 W/m2
05:29 12 °C 11 °C 1015.8 hPa Calm     91% 0.0 mm 12 W/m2
05:34 12 °C 11 °C 1015.8 hPa Calm     91% 0.0 mm 18 W/m2
05:39 12 °C 11 °C 1015.8 hPa Calm     91% 0.0 mm 21 W/m2
05:44 12 °C 11 °C 1016.0 hPa Calm     91% 0.0 mm 26 W/m2
05:49 12 °C 11 °C 1016.0 hPa Calm     91% 0.0 mm 30 W/m2
05:54 12 °C 11 °C 1016.0 hPa Calm     92% 0.0 mm 33 W/m2
05:59 12 °C 11 °C 1016.0 hPa Calm     92% 0.0 mm 46 W/m2
06:04 12 °C 11 °C 1016.0 hPa Calm     92% 0.0 mm 54 W/m2
06:09 12 °C 11 °C 1016.1 hPa Calm     92% 0.0 mm 56 W/m2
06:14 12 °C 11 °C 1016.1 hPa Calm     92% 0.0 mm 56 W/m2
06:19 13 °C 12 °C 1016.2 hPa Calm     93% 0.0 mm 65 W/m2
06:24 13 °C 12 °C 1016.3 hPa Calm     93% 0.0 mm 70 W/m2
06:29 13 °C 12 °C 1016.3 hPa Calm     93% 0.0 mm 67 W/m2
06:34 13 °C 12 °C 1016.4 hPa Calm     93% 0.0 mm 56 W/m2
06:39 13 °C 12 °C 1016.4 hPa Calm   3 km/h 93% 0.0 mm 51 W/m2
06:44 13 °C 12 °C 1016.5 hPa WSW 1 km/h 6 km/h 93% 0.0 mm 67 W/m2
06:49 13 °C 12 °C 1016.4 hPa Calm     92% 0.0 mm 86 W/m2
06:54 13 °C 12 °C 1016.5 hPa Calm     92% 0.0 mm 84 W/m2
06:59 13 °C 12 °C 1016.5 hPa Calm     92% 0.0 mm 84 W/m2
07:04 13 °C 12 °C 1016.6 hPa Calm   5 km/h 92% 0.0 mm 70 W/m2
07:09 14 °C 12 °C 1016.6 hPa WSW 1 km/h 5 km/h 92% 0.0 mm 77 W/m2
07:14 14 °C 12 °C 1016.6 hPa Calm     92% 0.0 mm 98 W/m2
07:19 14 °C 12 °C 1016.6 hPa Calm     92% 0.0 mm 113 W/m2
07:24 14 °C 13 °C 1016.6 hPa Calm     92% 0.0 mm 111 W/m2
07:29 14 °C 13 °C 1016.6 hPa Calm     92% 0.0 mm 109 W/m2
07:34 14 °C 13 °C 1016.6 hPa SW 3 km/h 8 km/h 91% 0.0 mm 107 W/m2
07:39 14 °C 13 °C 1016.7 hPa SW 2 km/h 8 km/h 91% 0.0 mm 107 W/m2
07:44 14 °C 13 °C 1016.8 hPa SW 4 km/h 10 km/h 91% 0.0 mm 107 W/m2
07:49 14 °C 13 °C 1016.8 hPa SW 2 km/h 10 km/h 90% 0.0 mm 100 W/m2
07:54 14 °C 13 °C 1016.9 hPa SSW 2 km/h 8 km/h 90% 0.0 mm 98 W/m2
07:59 14 °C 13 °C 1017.0 hPa SSW 1 km/h 8 km/h 90% 0.0 mm 105 W/m2
08:04 14 °C 13 °C 1017.1 hPa SSW 5 km/h 8 km/h 90% 0.0 mm 104 W/m2
08:09 14 °C 13 °C 1017.2 hPa SSW 2 km/h 8 km/h 90% 0.0 mm 104 W/m2
08:14 14 °C 13 °C 1017.3 hPa SSW 1 km/h 6 km/h 90% 0.0 mm 111 W/m2
08:19 14 °C 13 °C 1017.2 hPa SSW 5 km/h 8 km/h 90% 0.0 mm 148 W/m2
08:24 14 °C 13 °C 1017.3 hPa SW 2 km/h 6 km/h 89% 0.0 mm 153 W/m2
08:29 14 °C 13 °C 1017.3 hPa SW 2 km/h 8 km/h 89% 0.0 mm 172 W/m2
08:34 15 °C 13 °C 1017.4 hPa South 3 km/h 11 km/h 89% 0.0 mm 174 W/m2
08:39 15 °C 13 °C 1017.4 hPa SSW 4 km/h 8 km/h 88% 0.0 mm 162 W/m2
08:44 15 °C 13 °C 1017.4 hPa SW 2 km/h 8 km/h 88% 0.0 mm 169 W/m2
08:49 15 °C 13 °C 1017.4 hPa SSW 2 km/h 8 km/h 88% 0.0 mm 185 W/m2
08:54 15 °C 13 °C 1017.5 hPa South 4 km/h 11 km/h 87% 0.0 mm 204 W/m2
08:59 15 °C 13 °C 1017.5 hPa SSW 5 km/h 10 km/h 87% 0.0 mm 221 W/m2
09:04 15 °C 13 °C 1017.6 hPa SSW 6 km/h 10 km/h 87% 0.0 mm 243 W/m2
09:09 15 °C 13 °C 1017.6 hPa SSW 5 km/h 13 km/h 86% 0.0 mm 271 W/m2
09:14 15 °C 13 °C 1017.6 hPa SSW 6 km/h 13 km/h 86% 0.0 mm 316 W/m2
09:19 16 °C 13 °C 1017.6 hPa SSW 7 km/h 16 km/h 85% 0.0 mm 366 W/m2
09:24 16 °C 13 °C 1017.6 hPa SSW 8 km/h 14 km/h 85% 0.0 mm 309 W/m2
09:29 16 °C 13 °C 1017.7 hPa SW 10 km/h 18 km/h 84% 0.0 mm 306 W/m2
09:34 16 °C 13 °C 1017.8 hPa SW 10 km/h 18 km/h 84% 0.0 mm 346 W/m2
09:39 16 °C 13 °C 1017.8 hPa SW 7 km/h 18 km/h 84% 0.0 mm 318 W/m2
09:44 16 °C 14 °C 1018.0 hPa South 8 km/h 13 km/h 84% 0.0 mm 294 W/m2
09:49 16 °C 13 °C 1018.0 hPa SSW 7 km/h 13 km/h 83% 0.0 mm 294 W/m2
09:54 16 °C 13 °C 1018.0 hPa SW 7 km/h 13 km/h 84% 0.0 mm 355 W/m2
09:59 16 °C 14 °C 1018.0 hPa South 5 km/h 13 km/h 84% 0.0 mm 355 W/m2
10:04 17 °C 14 °C 1018.0 hPa SSW 4 km/h 13 km/h 84% 0.0 mm 362 W/m2
10:09 17 °C 14 °C 1018.0 hPa SW 2 km/h 8 km/h 83% 0.0 mm 466 W/m2
10:14 17 °C 14 °C 1018.0 hPa SSW 6 km/h 14 km/h 83% 0.0 mm 517 W/m2
10:19 17 °C 14 °C 1018.0 hPa South 6 km/h 14 km/h 82% 0.0 mm 529 W/m2
10:24 17 °C 14 °C 1018.0 hPa SSW 5 km/h 13 km/h 82% 0.0 mm 563 W/m2
10:29 17 °C 14 °C 1018.0 hPa WSW 4 km/h 11 km/h 82% 0.0 mm 758 W/m2
10:34 18 °C 14 °C 1018.0 hPa SW 8 km/h 14 km/h 80% 0.0 mm 758 W/m2
10:39 18 °C 14 °C 1018.0 hPa SSW 5 km/h 14 km/h 81% 0.0 mm 645 W/m2
10:44 18 °C 14 °C 1018.0 hPa SW 7 km/h 14 km/h 80% 0.0 mm 684 W/m2
10:49 18 °C 15 °C 1018.0 hPa SSW 8 km/h 16 km/h 80% 0.0 mm 679 W/m2
10:54 18 °C 15 °C 1018.0 hPa SSW 8 km/h 14 km/h 79% 0.0 mm 779 W/m2
10:59 18 °C 15 °C 1018.0 hPa South 4 km/h 14 km/h 78% 0.0 mm 805 W/m2
11:04 18 °C 15 °C 1017.9 hPa WSW 5 km/h 11 km/h 78% 0.0 mm 805 W/m2
11:09 18 °C 14 °C 1018.0 hPa SW 8 km/h 16 km/h 77% 0.0 mm 350 W/m2
11:14 18 °C 14 °C 1018.0 hPa SW 6 km/h 13 km/h 76% 0.0 mm 350 W/m2
11:19 18 °C 14 °C 1018.1 hPa SW 4 km/h 10 km/h 77% 0.0 mm 299 W/m2
11:24 18 °C 14 °C 1018.1 hPa SSW 5 km/h 13 km/h 76% 0.0 mm 283 W/m2
11:29 18 °C 14 °C 1018.2 hPa SW 5 km/h 13 km/h 76% 0.0 mm 826 W/m2
11:34 18 °C 14 °C 1018.4 hPa SSW 8 km/h 18 km/h 77% 0.0 mm 874 W/m2
11:39 19 °C 14 °C 1018.4 hPa SSW 9 km/h 18 km/h 75% 0.0 mm 898 W/m2
11:40 19 °C 15 °C 1018.4 hPa SSW 7 km/h 10 km/h 75% 0.0 mm 898 W/m2
Compliments of Weather Underground - 3 mb